Regional Weather Roundup
Issued by NWS

Home | Current Version | Previous Version | Graphics & Text | Print | Product List | Glossary On
Versions: 1 2 3 4 5 6 7 8 9 10 11 12 13 14 15 16 17 18 19 20 21 22 23 24 25 26 27 28 29 30 31 32 33 34 35 36 37 38 39 40 41 42 43 44 45 46 47 48 49 50
000
ASUS43 KOAX 230402
RWRNE

WEATHER ROUNDUP FOR NEBRASKA
NATIONAL WEATHER SERVICE OMAHA NE
1100 PM CDT FRI JUL 22 2016

NOTES: SATELLITE DATA IS BEING USED TO AUGMENT CLOUD COVER ABOVE
       12000 FEET.
       "FAIR" INDICATES FEW OR NO CLOUDS BELOW 12,000 FEET WITH NO
       SIGNIFICANT WEATHER AND/OR OBSTRUCTIONS TO VISIBILITY.

  * THESE STATIONS DO NOT REPORT WEATHER SUCH AS RAIN...SNOW OR FOG.

NEZ001>004-019>022-054>056-230500-
NEBRASKA PANHANDLE

CITY           SKY/WX    TMP DP  RH WIND       PRES   REMARKS
SCOTTSBLUFF    CLOUDY    70  59  68 SE15      30.03R
ALLIANCE       CLOUDY    68  62  81 SE15      30.01R
CHADRON        CLOUDY    79  54  41 S18       29.93R
SIDNEY         CLOUDY    68  60  75 E7        30.08S
$$

NEZ057>060-069>072-079>082-230500-
SOUTHWEST NEBRASKA

CITY           SKY/WX    TMP DP  RH WIND       PRES   REMARKS
NORTH PLATTE   LGT RAIN  78  71  79 NW21G29   30.00R
IMPERIAL       CLOUDY    83  66  56 NW16G43   30.00R
LEXINGTON      CLOUDY    78  73  84 NE6       29.93F
MCCOOK         CLOUDY    79  71  76 NE7       29.92R
OGALLALA       TSTM      69  63  79 N20G28    30.08R
$$

NEZ005>010-023>029-035>040-094-230500-
NORTH CENTRAL NEBRASKA

CITY           SKY/WX    TMP DP  RH WIND       PRES   REMARKS
VALENTINE      CLOUDY    85  69  58 SE18      29.93F
AINSWORTH      CLOUDY    83  76  81 SE9       29.96F HX  91
BROKEN BOW     CLOUDY    76  73  91 N5        29.96R
O`NEILL        CLOUDY    84  76  77 SE5       29.96R HX  93
ORD            CLOUDY    82  77  84 CALM      29.93R HX  90
THEDFORD       LGT RAIN  81  76  87 W3        30.01S
$$

NEZ041-046>049-061>064-073>077-083>087-230500-
SOUTH CENTRAL NEBRASKA

CITY           SKY/WX    TMP DP  RH WIND       PRES   REMARKS
GRAND ISLAND   CLOUDY    80  73  79 E6        29.94R
AURORA         PTCLDY    77  75  94 SE3       29.93R
HASTINGS       CLOUDY    81  72  74 E7        29.94R
HEBRON         PTCLDY    76  70  80 CALM      29.91R
HOLDREGE       MOCLDY    78  71  77 E8        29.93S
KEARNEY *      CLOUDY    79  72  78 E6        29.94S
YORK           CLOUDY    77  73  88 SE7       29.94R
$$

NEZ011>018-030>034-042>045-230500-
NORTHEAST NEBRASKA

CITY           SKY/WX    TMP DP  RH WIND       PRES   REMARKS
NORFOLK        MOCLDY    81  76  84 E3        29.93S
ALBION         MOCLDY    80  73  81 NE9       29.93S
BLAIR          CLEAR     83  80  89 SE7       29.93R HX  96
FREMONT        CLOUDY    83  77  83 SE7       29.92R HX  92
TEKAMAH        CLEAR     83  79  88 E5        29.90R HX  94
WAYNE          CLOUDY    83  80  91 E7        29.93S HX  94
$$

NEZ050>053-065>068-078-088>093-230500-
SOUTHEAST NEBRASKA

CITY           SKY/WX    TMP DP  RH WIND       PRES   REMARKS
LINCOLN        CLOUDY    81  71  71 S3        29.93R
OMAHA EPPLEY   PTCLDY    86  79  79 SE16      29.91R HX  99
BEATRICE       CLOUDY    80  70  71 E3        29.92S
FALLS CITY     MOCLDY    83  78  85 SE6       29.93S THUNDER HX  93
NEBRASKA CITY  CLOUDY    81  75  83 S7        29.93S
PLATTSMOUTH    CLOUDY    83  81  94 SE5       29.92F HX  97
$$

NEZ044-045-051>053-067-230500-
OMAHA AREA

CITY           SKY/WX    TMP DP  RH WIND       PRES   REMARKS
OMAHA EPPLEY   PTCLDY    86  79  79 SE16      29.91R HX  99
BLAIR          CLEAR     83  80  89 SE7       29.93R HX  96
FREMONT        CLOUDY    83  77  83 SE7       29.92R HX  92
MILLARD        CLEAR     85  82  90 SE10      29.90S HX 101
OFFUTT AFB     CLEAR     83  81  92 SE9       29.91R HX  98
PLATTSMOUTH    CLOUDY    83  81  94 SE5       29.92F HX  97
WAHOO          FAIR      80  75  86 SE5       29.92R
$$




USA.gov is the U.S. government's official web portal to all federal, state and local government web resources and services.